Location: Fort Wayne
(41.1310°N, 85.1290°W)
Time: 21:43:22
(UTC-04:00)

Cosmos 2056 Rocket - Visible Passes

Search period start: 19 June 2018 00:00
Search period end: 29 June 2018 00:00
Orbit: 743 x 800 km, 74.0° (Epoch: 19 June)

Date Brightness Start Highest point End Pass type
(mag) Time Alt. Az. Time Alt. Az. Time Alt. Az.
19 Jun 5.6 22:34:36 10° NW 22:38:32 22° W 22:42:30 10° SSW visible
20 Jun 4.8 21:58:00 10° NW 22:02:44 38° WSW 22:07:31 10° SSW visible
22 Jun 6.2 22:30:19 10° WNW 22:32:18 12° W 22:34:17 10° WSW visible
23 Jun 5.8 21:52:46 10° NW 21:56:36 21° W 22:00:28 10° SW visible
26 Jun 6.4 21:48:44 10° WNW 21:50:21 11° W 21:51:58 10° WSW visible
